When you browse on this site, cookies collect data to enhance your experience and personalize the content and advertising you see.
Visit our Privacy Policy to learn more. By continuing to use the site, you agree to this use of cookies and data.
  • In Czech Republic
  • List of Countries
  • For 7 days
  • Water Temperature
  • Weather Map
  • Weather Widgets
  • user-avatar
    Login

    Hourly Weather La-Plata

    Today, 25 January, Saturday

    Time Temperature Precipitation Wind Pressure Humidity
    00:00 +29°C° 0 mm 4 mps 753 mmHg 44%
    01:00 +28°C° 0 mm 3 mps 753 mmHg 46%
    02:00 +26°C° 0 mm 2 mps 753 mmHg 48%
    03:00 +25°C° 0 mm 2 mps 753 mmHg 56%
    04:00 +24°C° 0 mm 2 mps 753 mmHg 64%
    05:00 +21°C° 0 mm 2 mps 753 mmHg 72%
    06:00 +24°C° 0 mm 2 mps 753 mmHg 65%
    07:00 +26°C° 0 mm 2 mps 753 mmHg 58%
    08:00 +29°C° 0 mm 2 mps 753 mmHg 51%
    09:00 +31°C° 0 mm 2 mps 753 mmHg 43%
    10:00 +34°C° 0 mm 2 mps 753 mmHg 36%
    11:00 +37°C° 0 mm 3 mps 753 mmHg 28%
    12:00 +37°C° 0 mm 3 mps 753 mmHg 28%
    13:00 +37°C° 0 mm 4 mps 752 mmHg 28%
    14:00 +37°C° 0 mm 4 mps 752 mmHg 28%
    15:00 +36°C° 0 mm 5 mps 752 mmHg 29%
    16:00 +35°C° 0 mm 5 mps 751 mmHg 29%
    17:00 +33°C° 0 mm 5 mps 751 mmHg 30%
    18:00 +32°C° 0 mm 5 mps 751 mmHg 35%
    19:00 +29°C° 0 mm 5 mps 752 mmHg 41%
    20:00 +27°C° 0 mm 5 mps 752 mmHg 46%
    21:00 +26°C° 0 mm 4 mps 752 mmHg 51%
    22:00 +25°C° 0 mm 4 mps 753 mmHg 56%
    23:00 +25°C° 0 mm 4 mps 753 mmHg 61%

    Tomorrow, 26 January, Sunday

    Time Temperature Precipitation Wind Pressure Humidity
    00:00 +23°C° 0 mm 4 mps 753 mmHg 63%
    01:00 +23°C° 0 mm 4 mps 753 mmHg 64%
    02:00 +22°C° 0 mm 5 mps 753 mmHg 66%
    03:00 +22°C° 0 mm 4 mps 753 mmHg 67%
    04:00 +22°C° 0 mm 4 mps 753 mmHg 68%
    05:00 +22°C° 0 mm 3 mps 753 mmHg 69%
    06:00 +25°C° 0 mm 3 mps 753 mmHg 60%
    07:00 +27°C° 0 mm 2 mps 753 mmHg 52%
    08:00 +28°C° 0 mm 2 mps 754 mmHg 43%
    09:00 +31°C° 0 mm 2 mps 753 mmHg 36%
    10:00 +33°C° 0 mm 1 mps 753 mmHg 29%
    11:00 +36°C° 0 mm 1 mps 753 mmHg 22%
    12:00 +37°C° 0 mm 2 mps 753 mmHg 22%
    13:00 +38°C° 0 mm 3 mps 752 mmHg 21%
    14:00 +38°C° 0 mm 4 mps 752 mmHg 20%
    15:00 +37°C° 0 mm 4 mps 752 mmHg 26%
    16:00 +35°C° 0 mm 5 mps 751 mmHg 33%
    17:00 +33°C° 0 mm 5 mps 751 mmHg 39%
    18:00 +30°C° 0 mm 5 mps 752 mmHg 45%
    19:00 +28°C° 0 mm 5 mps 752 mmHg 50%
    20:00 +26°C° 0 mm 4 mps 753 mmHg 56%
    21:00 +25°C° 0 mm 5 mps 754 mmHg 60%
    22:00 +25°C° 0 mm 5 mps 755 mmHg 63%
    23:00 +23°C° 0 mm 6 mps 756 mmHg 67%

    Day after tomorrow, 27 January, Monday

    Time Temperature Precipitation Wind Pressure Humidity
    00:00 +23°C° 0 mm 6 mps 756 mmHg 62%
    01:00 +22°C° 0 mm 6 mps 756 mmHg 56%
    02:00 +22°C° 0 mm 7 mps 757 mmHg 51%
    03:00 +20°C° 0 mm 6 mps 757 mmHg 59%
    04:00 +19°C° 0 mm 6 mps 758 mmHg 66%
    05:00 +16°C° 0 mm 6 mps 758 mmHg 74%
    06:00 +17°C° 0 mm 6 mps 759 mmHg 68%
    07:00 +19°C° 0 mm 5 mps 759 mmHg 61%
    08:00 +20°C° 0 mm 5 mps 759 mmHg 55%
    09:00 +23°C° 0 mm 5 mps 759 mmHg 45%
    10:00 +26°C° 0 mm 5 mps 759 mmHg 35%
    11:00 +29°C° 0 mm 4 mps 759 mmHg 25%
    12:00 +30°C° 0 mm 5 mps 759 mmHg 23%
    13:00 +32°C° 0 mm 5 mps 759 mmHg 20%
    14:00 +33°C° 0 mm 5 mps 759 mmHg 18%
    15:00 +30°C° 0 mm 6 mps 759 mmHg 26%
    16:00 +28°C° 0 mm 7 mps 759 mmHg 34%
    17:00 +24°C° 0 mm 8 mps 758 mmHg 41%
    18:00 +23°C° 0 mm 7 mps 759 mmHg 48%
    19:00 +21°C° 0 mm 6 mps 759 mmHg 55%
    20:00 +19°C° 0 mm 6 mps 759 mmHg 62%
    21:00 +19°C° 0 mm 5 mps 760 mmHg 64%
    22:00 +17°C° 0 mm 5 mps 760 mmHg 67%
    23:00 +17°C° 0 mm 5 mps 760 mmHg 69%

    28 January, Tuesday

    Time Temperature Precipitation Wind Pressure Humidity
    00:00 +17°C° 0 mm 5 mps 760 mmHg 69%
    01:00 +17°C° 0 mm 5 mps 759 mmHg 68%
    02:00 +17°C° 0 mm 5 mps 759 mmHg 68%
    03:00 +17°C° 0 mm 5 mps 759 mmHg 68%
    04:00 +19°C° 0 mm 5 mps 759 mmHg 68%
    05:00 +19°C° 0 mm 5 mps 759 mmHg 67%
    06:00 +20°C° 0 mm 6 mps 758 mmHg 61%
    07:00 +22°C° 0 mm 6 mps 758 mmHg 54%
    08:00 +23°C° 0 mm 6 mps 758 mmHg 48%
    09:00 +26°C° 0 mm 5 mps 757 mmHg 39%
    10:00 +29°C° 0 mm 4 mps 757 mmHg 31%
    11:00 +31°C° 0 mm 3 mps 756 mmHg 23%
    12:00 +33°C° 0 mm 3 mps 756 mmHg 20%
    13:00 +35°C° 0 mm 3 mps 755 mmHg 17%
    14:00 +37°C° 0 mm 3 mps 754 mmHg 14%
    15:00 +36°C° 0 mm 4 mps 753 mmHg 15%
    16:00 +36°C° 0 mm 4 mps 753 mmHg 17%
    17:00 +36°C° 0 mm 5 mps 752 mmHg 18%
    18:00 +33°C° 0 mm 5 mps 752 mmHg 29%
    19:00 +29°C° 0 mm 5 mps 752 mmHg 41%
    20:00 +26°C° 0 mm 5 mps 752 mmHg 52%
    21:00 +27°C° 0 mm 6 mps 752 mmHg 49%
    22:00 +28°C° 0 mm 6 mps 752 mmHg 46%
    23:00 +28°C° 0 mm 6 mps 752 mmHg 42%

    29 January, Wednesday

    Time Temperature Precipitation Wind Pressure Humidity
    00:00 +28°C° 0 mm 5 mps 752 mmHg 40%
    01:00 +29°C° 0 mm 5 mps 752 mmHg 37%
    02:00 +29°C° 0 mm 5 mps 751 mmHg 35%
    03:00 +28°C° 0 mm 5 mps 752 mmHg 35%
    04:00 +28°C° 0 mm 5 mps 752 mmHg 36%
    05:00 +27°C° 0 mm 5 mps 752 mmHg 37%
    06:00 +28°C° 0 mm 4 mps 753 mmHg 36%
    07:00 +28°C° 0 mm 4 mps 753 mmHg 34%
    08:00 +29°C° 0 mm 4 mps 753 mmHg 33%
    09:00 +32°C° 0 mm 4 mps 753 mmHg 32%
    10:00 +34°C° 0 mm 3 mps 753 mmHg 32%
    11:00 +36°C° 0 mm 2 mps 753 mmHg 31%
    12:00 +35°C° 0.2 mm 3 mps 753 mmHg 36%
    13:00 +33°C° 0.2 mm 3 mps 753 mmHg 41%
    14:00 +32°C° 0.2 mm 4 mps 752 mmHg 46%
    15:00 +29°C° 1.4 mm 4 mps 753 mmHg 56%
    16:00 +26°C° 1.4 mm 4 mps 753 mmHg 65%
    17:00 +23°C° 1.4 mm 5 mps 754 mmHg 74%
    18:00 +23°C° 0.2 mm 5 mps 754 mmHg 79%
    19:00 +22°C° 0.2 mm 6 mps 755 mmHg 84%
    20:00 +22°C° 0.2 mm 6 mps 756 mmHg 90%
    21:00 +21°C° 0.1 mm 6 mps 756 mmHg 90%
    22:00 +21°C° 0.1 mm 5 mps 757 mmHg 89%
    23:00 +21°C° 0.1 mm 5 mps 757 mmHg 89%

    30 January, Thursday

    Time Temperature Precipitation Wind Pressure Humidity
    00:00 +20°C° 0.1 mm 5 mps 757 mmHg 89%
    01:00 +20°C° 0.1 mm 5 mps 756 mmHg 89%
    02:00 +19°C° 0.1 mm 5 mps 756 mmHg 90%
    03:00 +19°C° 0 mm 4 mps 756 mmHg 89%
    04:00 +19°C° 0 mm 4 mps 756 mmHg 89%
    05:00 +18°C° 0 mm 4 mps 756 mmHg 89%
    06:00 +20°C° 0 mm 4 mps 756 mmHg 83%
    07:00 +21°C° 0 mm 3 mps 756 mmHg 78%
    08:00 +22°C° 0 mm 3 mps 756 mmHg 73%
    09:00 +26°C° 0 mm 3 mps 756 mmHg 59%
    10:00 +28°C° 0 mm 2 mps 756 mmHg 45%
    11:00 +31°C° 0 mm 2 mps 756 mmHg 31%
    12:00 +31°C° 0 mm 2 mps 756 mmHg 29%
    13:00 +33°C° 0 mm 3 mps 755 mmHg 26%
    14:00 +34°C° 0 mm 3 mps 755 mmHg 24%
    15:00 +32°C° 0 mm 4 mps 755 mmHg 31%
    16:00 +30°C° 0 mm 5 mps 754 mmHg 38%
    17:00 +29°C° 0 mm 5 mps 754 mmHg 45%
    18:00 +27°C° 0 mm 5 mps 754 mmHg 54%
    19:00 +25°C° 0 mm 5 mps 755 mmHg 63%
    20:00 +23°C° 0 mm 4 mps 755 mmHg 71%
    21:00 +22°C° 0 mm 5 mps 755 mmHg 71%
    22:00 +22°C° 0 mm 5 mps 755 mmHg 71%
    23:00 +22°C° 0 mm 5 mps 755 mmHg 71%
    Show more